Weather History for KGEY - February, 2013

Change the Weather History Date:

Sunday, February 24, 2013

  Actual Average Record
Temperature  
Mean Temperature 27 °F 28 °F  
Max Temperature 35 °F 41 °F 58 °F (1989)
Min Temperature 18 °F 15 °F -17 °F (2003)
Degree Days  
Heating Degree Days 38 37  
Month to date heating degree days 1119 1016  
Since 1 July heating degree days 5707 5830  
Cooling Degree Days 0 0  
Month to date cooling degree days 0 0  
Year to date cooling degree days 0 0  
Moisture  
Dew Point 18 °F    
Average Humidity 62    
Maximum Humidity 77    
Minimum Humidity 47    
Precipitation  
Precipitation 0.00 in 0.01 in 0.04 in (2001)
Month to date precipitation 0.12 0.15  
Year to date precipitation 0.40 0.38  
Sea Level Pressure  
Sea Level Pressure 30.14 in    
Wind  
Wind Speed 15 mph (NW)    
Max Wind Speed 32 mph    
Max Gust Speed 39 mph    
Visibility 10 miles    
Events      
T = Trace of Precipitation, MM = Missing Value Source: NWS Daily Summary

Daily Weather History Graph

Daily Weather History Graph

Search for Another Location

Airport or City:

Trip Planner

Search our weather history database for the weather conditions in past years. The results will help you decide how hot, cold, wet, or windy it might be!

Date:

Astronomy

Feb. 24, 2013 Rise Set
Actual Time 6:57 AM MST 5:53 PM MST
Civil Twilight 6:28 AM MST 6:23 PM MST
Nautical Twilight 5:54 AM MST 6:57 PM MST
Astronomical Twilight 5:20 AM MST 7:30 PM MST
Moon 5:08 PM MST (2/24) 5:57 AM MST (2/24)
Length of Visible Light 11h 55m
Length of Day
10h 56m
Waxing Gibbous, 99% of the Moon is Illuminated
Feb 24
Waxing Gibbous
Feb 25
Full
Mar 4
Last Quarter
Mar 11
New
Mar 19
First Quarter

Hourly Weather History & Observations

Time (MST) Temp. Windchill Dew Point Humidity Pressure Visibility Wind Dir Wind Speed Gust Speed Precip Events Conditions
12:53 AM 28.9 °F 14.5 °F 18.0 °F 64% 29.99 in 10.0 mi NW 25.3 mph 32.2 mph N/A   Overcast
1:53 AM 28.0 °F 12.0 °F 19.0 °F 69% 30.01 in 10.0 mi NNW 31.1 mph 39.1 mph N/A   Overcast
2:53 AM 26.1 °F 11.6 °F 19.0 °F 75% 30.03 in 10.0 mi WNW 21.9 mph - N/A   Clear
3:53 AM 26.1 °F 10.7 °F 19.9 °F 78% 30.06 in 10.0 mi WNW 25.3 mph 31.1 mph N/A   Clear
4:53 AM 27.0 °F 12.2 °F 19.9 °F 75% 30.07 in 10.0 mi WNW 24.2 mph 31.1 mph N/A   Clear
5:53 AM 28.0 °F 14.3 °F 19.0 °F 69% 30.09 in 10.0 mi NW 21.9 mph 29.9 mph N/A   Clear
6:53 AM 28.0 °F 13.6 °F 18.0 °F 66% 30.12 in 10.0 mi NNW 24.2 mph 36.8 mph N/A   Clear
7:53 AM 28.0 °F 13.0 °F 17.1 °F 63% 30.14 in 10.0 mi NNW 26.5 mph 33.4 mph N/A   Clear
8:53 AM 28.9 °F 16.1 °F 18.0 °F 64% 30.16 in 10.0 mi NW 19.6 mph 29.9 mph N/A   Clear
9:53 AM 30.9 °F 19.8 °F 17.1 °F 57% 30.17 in 10.0 mi NNW 16.1 mph - N/A   Clear
10:53 AM 32.0 °F 19.8 °F 18.0 °F 56% 30.18 in 10.0 mi NW 20.7 mph 28.8 mph N/A   Clear
11:53 AM 33.1 °F 21.9 °F 18.0 °F 54% 30.18 in 10.0 mi NNW 18.4 mph - N/A   Clear
12:53 PM 34.0 °F 25.5 °F 18.0 °F 52% 30.17 in 10.0 mi NNW 11.5 mph - N/A   Clear
1:53 PM 35.1 °F 27.4 °F 17.1 °F 48% 30.16 in 10.0 mi NW 10.4 mph - N/A   Clear
2:53 PM 33.1 °F 25.5 °F 19.9 °F 59% 30.17 in 10.0 mi SSE 9.2 mph - N/A   Clear
3:53 PM 33.1 °F 26.9 °F 19.0 °F 56% 30.17 in 10.0 mi SE 6.9 mph - N/A   Clear
4:53 PM 30.9 °F 22.2 °F 19.0 °F 61% 30.17 in 10.0 mi South 10.4 mph - N/A   Clear
5:53 PM 28.9 °F 19.2 °F 19.0 °F 67% 30.16 in 10.0 mi SSE 11.5 mph - N/A   Clear
6:53 PM 25.0 °F 15.5 °F 18.0 °F 75% 30.18 in 10.0 mi South 9.2 mph - N/A   Clear
7:53 PM 24.1 °F 17.0 °F 17.1 °F 75% 30.19 in 10.0 mi SSE 5.8 mph - N/A   Clear
8:53 PM 21.0 °F 16.2 °F 15.1 °F 78% 30.20 in 10.0 mi South 3.5 mph - N/A   Clear
9:53 PM 21.9 °F 15.7 °F 14.0 °F 72% 30.19 in 10.0 mi ESE 4.6 mph - N/A   Clear
10:53 PM 19.9 °F 11.1 °F 12.9 °F 74% 30.18 in 10.0 mi ESE 6.9 mph - N/A   Clear
11:53 PM 18.0 °F 11.1 °F 10.9 °F 74% 30.18 in 10.0 mi SE 4.6 mph - N/A   Clear